• In Netherlands
  • List of Countries
  • For 7 days
  • Water Temperature
  • Satellite Maps
  • Weather Map
  • Weather Widgets
  • user-avatar
    Login

    Hourly Weather Chakhansur

    Today, 22 February, Wednesday

    Time Temperature Precipitation Wind Pressure Humidity
    00:00 +10°C° 0 mm 1 mps 719 mmHg 27%
    01:00 +9°C° 0 mm 1 mps 719 mmHg 28%
    02:00 +9°C° 0 mm 1 mps 719 mmHg 28%
    03:00 +9°C° 0 mm 1 mps 719 mmHg 28%
    04:00 +7°C° 0 mm 0 mps 719 mmHg 29%
    05:00 +8°C° 0 mm 1 mps 719 mmHg 29%
    06:00 +8°C° 0 mm 1 mps 719 mmHg 28%
    07:00 +9°C° 0 mm 1 mps 719 mmHg 28%
    08:00 +10°C° 0 mm 1 mps 720 mmHg 24%
    09:00 +12°C° 0 mm 2 mps 720 mmHg 21%
    10:00 +14°C° 0 mm 2 mps 721 mmHg 17%
    11:00 +15°C° 0 mm 2 mps 720 mmHg 16%
    12:00 +16°C° 0 mm 1 mps 720 mmHg 15%
    13:00 +18°C° 0 mm 1 mps 720 mmHg 13%
    14:00 +18°C° 0 mm 1 mps 720 mmHg 13%
    15:00 +19°C° 0 mm 1 mps 720 mmHg 12%
    16:00 +18°C° 0 mm 2 mps 719 mmHg 12%
    17:00 +17°C° 0 mm 2 mps 719 mmHg 14%
    18:00 +16°C° 0 mm 2 mps 719 mmHg 16%
    19:00 +15°C° 0 mm 2 mps 719 mmHg 18%
    20:00 +15°C° 0 mm 2 mps 720 mmHg 19%
    21:00 +14°C° 0 mm 2 mps 720 mmHg 20%
    22:00 +14°C° 0 mm 2 mps 720 mmHg 20%
    23:00 +13°C° 0 mm 2 mps 720 mmHg 21%

    Tomorrow, 23 February, Thursday

    Time Temperature Precipitation Wind Pressure Humidity
    00:00 +13°C° 0 mm 2 mps 720 mmHg 22%
    01:00 +13°C° 0 mm 2 mps 720 mmHg 23%
    02:00 +12°C° 0 mm 2 mps 720 mmHg 23%
    03:00 +12°C° 0 mm 2 mps 720 mmHg 23%
    04:00 +12°C° 0 mm 2 mps 720 mmHg 24%
    05:00 +10°C° 0 mm 2 mps 720 mmHg 24%
    06:00 +10°C° 0 mm 2 mps 720 mmHg 25%
    07:00 +10°C° 0 mm 2 mps 721 mmHg 25%
    08:00 +13°C° 0 mm 2 mps 721 mmHg 22%
    09:00 +15°C° 0 mm 2 mps 722 mmHg 19%
    10:00 +17°C° 0 mm 2 mps 722 mmHg 16%
    11:00 +18°C° 0 mm 2 mps 722 mmHg 14%
    12:00 +19°C° 0 mm 2 mps 722 mmHg 13%
    13:00 +20°C° 0 mm 2 mps 721 mmHg 11%
    14:00 +21°C° 0 mm 2 mps 721 mmHg 11%
    15:00 +21°C° 0 mm 2 mps 721 mmHg 11%
    16:00 +21°C° 0 mm 3 mps 721 mmHg 11%
    17:00 +20°C° 0 mm 3 mps 721 mmHg 13%
    18:00 +19°C° 0 mm 3 mps 721 mmHg 15%
    19:00 +18°C° 0 mm 3 mps 721 mmHg 17%
    20:00 +18°C° 0 mm 4 mps 721 mmHg 18%
    21:00 +17°C° 0 mm 4 mps 721 mmHg 19%
    22:00 +17°C° 0 mm 4 mps 721 mmHg 20%
    23:00 +17°C° 0 mm 4 mps 721 mmHg 20%

    Day after tomorrow, 24 February, Friday

    Time Temperature Precipitation Wind Pressure Humidity
    00:00 +15°C° 0 mm 4 mps 720 mmHg 21%
    01:00 +15°C° 0 mm 5 mps 720 mmHg 21%
    02:00 +15°C° 0 mm 4 mps 719 mmHg 22%
    03:00 +15°C° 0 mm 4 mps 719 mmHg 22%
    04:00 +14°C° 0 mm 4 mps 719 mmHg 23%
    05:00 +14°C° 0 mm 4 mps 719 mmHg 24%
    06:00 +14°C° 0 mm 4 mps 719 mmHg 25%
    07:00 +14°C° 0 mm 3 mps 719 mmHg 25%
    08:00 +17°C° 0 mm 3 mps 719 mmHg 23%
    09:00 +18°C° 0 mm 3 mps 720 mmHg 21%
    10:00 +20°C° 0 mm 3 mps 720 mmHg 19%
    11:00 +21°C° 0 mm 3 mps 720 mmHg 19%
    12:00 +22°C° 0 mm 3 mps 720 mmHg 19%
    13:00 +24°C° 0 mm 3 mps 720 mmHg 20%
    14:00 +25°C° 0 mm 3 mps 720 mmHg 20%
    15:00 +25°C° 0 mm 3 mps 719 mmHg 20%
    16:00 +25°C° 0 mm 4 mps 719 mmHg 21%
    17:00 +23°C° 0 mm 4 mps 720 mmHg 22%
    18:00 +22°C° 0 mm 4 mps 720 mmHg 24%
    19:00 +20°C° 0 mm 4 mps 721 mmHg 26%
    20:00 +20°C° 0 mm 4 mps 721 mmHg 28%
    21:00 +19°C° 0 mm 5 mps 722 mmHg 30%
    22:00 +17°C° 0 mm 6 mps 723 mmHg 32%
    23:00 +16°C° 0 mm 6 mps 723 mmHg 34%

    25 February, Saturday

    Time Temperature Precipitation Wind Pressure Humidity
    00:00 +15°C° 0 mm 6 mps 723 mmHg 36%
    01:00 +15°C° 0 mm 6 mps 723 mmHg 38%
    02:00 +14°C° 0 mm 6 mps 723 mmHg 41%
    03:00 +14°C° 0 mm 6 mps 723 mmHg 43%
    04:00 +13°C° 0 mm 6 mps 723 mmHg 45%
    05:00 +13°C° 0 mm 6 mps 723 mmHg 45%
    06:00 +13°C° 0 mm 6 mps 724 mmHg 46%
    07:00 +11°C° 0 mm 6 mps 725 mmHg 46%
    08:00 +14°C° 0 mm 6 mps 725 mmHg 41%
    09:00 +15°C° 0 mm 7 mps 725 mmHg 35%
    10:00 +16°C° 0 mm 8 mps 726 mmHg 29%
    11:00 +17°C° 0 mm 7 mps 725 mmHg 26%
    12:00 +18°C° 0 mm 7 mps 725 mmHg 23%
    13:00 +20°C° 0 mm 7 mps 724 mmHg 19%
    14:00 +20°C° 0 mm 7 mps 724 mmHg 19%
    15:00 +21°C° 0 mm 6 mps 723 mmHg 18%
    16:00 +21°C° 0 mm 6 mps 723 mmHg 17%
    17:00 +19°C° 0 mm 6 mps 723 mmHg 19%
    18:00 +17°C° 0 mm 5 mps 723 mmHg 22%
    19:00 +16°C° 0 mm 5 mps 723 mmHg 24%
    20:00 +15°C° 0 mm 5 mps 723 mmHg 26%
    21:00 +15°C° 0 mm 5 mps 723 mmHg 29%
    22:00 +14°C° 0 mm 5 mps 723 mmHg 31%
    23:00 +13°C° 0 mm 5 mps 723 mmHg 33%

    26 February, Sunday

    Time Temperature Precipitation Wind Pressure Humidity
    00:00 +13°C° 0 mm 5 mps 722 mmHg 35%
    01:00 +12°C° 0 mm 5 mps 722 mmHg 37%
    02:00 +12°C° 0 mm 4 mps 722 mmHg 39%
    03:00 +11°C° 0 mm 4 mps 721 mmHg 41%
    04:00 +10°C° 0 mm 4 mps 721 mmHg 43%
    05:00 +10°C° 0 mm 3 mps 721 mmHg 44%
    06:00 +10°C° 0 mm 3 mps 722 mmHg 46%
    07:00 +10°C° 0 mm 3 mps 722 mmHg 47%
    08:00 +11°C° 0 mm 3 mps 722 mmHg 43%
    09:00 +13°C° 0 mm 3 mps 722 mmHg 39%
    10:00 +14°C° 0 mm 3 mps 723 mmHg 35%
    11:00 +16°C° 0 mm 3 mps 722 mmHg 31%
    12:00 +18°C° 0 mm 3 mps 722 mmHg 27%
    13:00 +19°C° 0 mm 3 mps 721 mmHg 23%
    14:00 +19°C° 0 mm 2 mps 721 mmHg 21%
    15:00 +20°C° 0 mm 2 mps 720 mmHg 20%
    16:00 +20°C° 0 mm 2 mps 720 mmHg 18%
    17:00 +20°C° 0 mm 1 mps 720 mmHg 20%
    18:00 +19°C° 0 mm 1 mps 720 mmHg 23%
    19:00 +18°C° 0 mm 1 mps 720 mmHg 25%
    20:00 +18°C° 0 mm 1 mps 720 mmHg 26%
    21:00 +16°C° 0 mm 1 mps 720 mmHg 27%
    22:00 +16°C° 0 mm 1 mps 720 mmHg 28%
    23:00 +15°C° 0 mm 1 mps 720 mmHg 29%

    27 February, Monday

    Time Temperature Precipitation Wind Pressure Humidity
    00:00 +13°C° 0 mm 0 mps 720 mmHg 30%
    01:00 +13°C° 0 mm 0 mps 720 mmHg 32%
    02:00 +13°C° 0 mm 0 mps 720 mmHg 32%
    03:00 +13°C° 0 mm 1 mps 720 mmHg 32%
    04:00 +13°C° 0 mm 1 mps 719 mmHg 32%
    05:00 +13°C° 0 mm 1 mps 720 mmHg 33%
    06:00 +14°C° 0 mm 2 mps 721 mmHg 33%
    07:00 +14°C° 0 mm 2 mps 721 mmHg 33%
    08:00 +15°C° 0 mm 2 mps 722 mmHg 30%
    09:00 +17°C° 0 mm 2 mps 723 mmHg 27%
    10:00 +19°C° 0 mm 2 mps 723 mmHg 24%
    11:00 +20°C° 0 mm 2 mps 723 mmHg 22%
    12:00 +20°C° 0 mm 2 mps 723 mmHg 20%
    13:00 +21°C° 0 mm 2 mps 722 mmHg 18%
    14:00 +21°C° 0 mm 2 mps 722 mmHg 18%
    15:00 +23°C° 0 mm 2 mps 722 mmHg 17%
    16:00 +23°C° 0 mm 2 mps 721 mmHg 17%
    17:00 +21°C° 0 mm 2 mps 722 mmHg 19%
    18:00 +20°C° 0 mm 2 mps 722 mmHg 21%
    19:00 +19°C° 0 mm 2 mps 722 mmHg 23%
    20:00 +18°C° 0 mm 2 mps 722 mmHg 24%
    21:00 +18°C° 0 mm 2 mps 722 mmHg 25%
    22:00 +17°C° 0 mm 3 mps 722 mmHg 26%
    23:00 +17°C° 0 mm 3 mps 722 mmHg 28%
    Show more